Location: Arbon
(43.0005°N, 0.7472°E)
Time: 21:48:47
(UTC+00:00)

Altair - Pass Details

Date: 29 November 2020
Orbit: 1501 x 1682 km, 47.2° (Epoch: 26 January)

Event Time Altitude Azimuth Distance (km) Brightness Sun altitude
Rises 20:10:06 0° 232° (SW) 4,739 10.5 -40.7°
Reaches altitude 10° 20:13:13 10° 230° (SW) 3,733 9.9 -41.3°
Enters shadow 20:18:58 42° 219° (SW) 2,064 8.2 -42.3°
Maximum altitude 20:22:32 71° 149° (SSE) 1,591 - -43.0°
Drops below altitude 10° 20:31:39 10° 67° (ENE) 3,657 - -44.6°
Sets 20:34:40 0° 66° (ENE) 4,638 - -45.1°
